カタログに戻る

OPS 5960

運用中ナビゲーションMEO
NORAD 4630·PAYLOAD·🇺🇸 United States

打ち上げ Nov 6, 1970 から Cape Canaveral Space Force Station

Loading…

次のパス (今後24時間)

TLE

最新Source: Space-Track

元期: Sep 14, 2026, 00:00 UTC

1 04630U 70093A   26257.00062559 -.00000162  00000-0  00000-0 0  9991
2 04630  15.2567  34.5448 1359566 281.4234  47.9784  1.20217156244901

AllMySatでOPS 5960をリアルタイム追跡

Download on the App Store